Location: Clanezzo
(45.7500°N, 9.6000°E)
Time: 00:14:57
(UTC+00:00)

USA 308 - Pass Details

Date: 30 September 2021
Orbit: 566 x 573 km, 54.0° (Epoch: 23 September)

Event Time Altitude Azimuth Distance (km) Brightness Sun altitude
Rises 17:49:02 0° 303° (WNW) 2,771 7.6 -8.8°
Reaches altitude 10° 17:51:21 10° 309° (NW) 1,873 6.5 -9.2°
Maximum altitude 17:55:28 48° 24° (NNE) 749 3.4 -9.9°
Enters shadow 17:58:51 15° 97° (E) 1,588 4.5 -10.5°
